Location: Newark
(43.0000°N, 1.6781°W)
Time: 11:20:01
(UTC+00:00)

Explorer 7 - Pass Details

Date: 22 April 2021
Orbit: 484 x 677 km, 50.3° (Epoch: 07 May)

Event Time Altitude Azimuth Distance (km) Brightness Sun altitude
Rises 20:41:01 0° 268° (W) 2,639 11.1 -17.6°
Reaches altitude 10° 20:43:17 10° 277° (W) 1,781 10.3 -17.9°
Maximum altitude 20:47:05 37° 346° (NNW) 867 8.2 -18.4°
Drops below altitude 10° 20:51:06 10° 55° (NE) 1,896 9.4 -19.0°
Enters shadow 20:51:37 - 57° (ENE) 2,083 9.6 -19.1°
Sets 20:53:36 0° 63° (ENE) 2,835 - -19.3°
